World > North America > United States > Pennsylvania > Crooked Creek  

Crooked Creek, PA Hourly Weather Updates

Feedback E-mail the Weather

Quick Clicks

Crooked Creek, PA Weather Maps

°F °C°F °C
Crooked Creek Weather Map
UTC Time: 6/22/2024, 12:22
Your Time:

Crooked Creek, PA Regional Weather

Expires:202406221200;;462304
ASUS41 KCTP 221110
RWRCTP

REGIONAL WEATHER ROUNDUP
NATIONAL WEATHER SERVICE STATE COLLEGE PA
700 AM EDT SAT JUN 22 2024

Note: "fair" indicates few or no clouds below 12,000 feet with no 
significant weather and/or obstructions to visibility.

* = STATION THAT DOES NOT REPORT PRECIPITATION /E.G. RAIN...SNOW...ETC/
    THUNDER OR FOG.


PAZ004>006-010>012-017>019-024>028-033>037-041-042-045-046-049>053-221200-
CENTRAL PENNSYLVANIA
  
CITY           SKY/WX    TMP DP  RH WIND       PRES   REMARKS
BRADFORD       MOSUNNY   68  66  93 CALM      30.15S FOG              
ST MARYS       MOSUNNY   70  68  94 CALM      30.17F                  
DUBOIS         SUNNY     72  68  87 CALM      30.13S FOG              
CLEARFIELD     SUNNY     69  66  90 CALM      30.14R FOG              
JOHNSTOWN      SUNNY     72  63  73 SW8       30.17F                  
SOMERSET       SUNNY     68  63  83 SW3       30.19S                  
ALTOONA        MOSUNNY   71  66  84 S3        30.13F HAZE             
STATE COLLEGE  SUNNY     72  72 100 CALM      30.12S                  
REEDSVILLE     MOSUNNY   72  70  94 CALM      30.09S FOG              
WELLSBORO      FOG       66  66 100 CALM      30.13S VSB<1/4          
WILLIAMSPORT   CLOUDY    72  70  93 W3        30.07F                  
SELINSGROVE    MOSUNNY   71  69  93 CALM      30.08S                  
FT INDIANTOWN  SUNNY     73  69  87 CALM      30.06S                  
CAPITAL CITY   SUNNY     77  67  71 VRB5      30.07R                  
HARRISBURG     MOSUNNY   78  70  76 SE3       30.06R                  
YORK           SUNNY     74  68  81 CALM      30.08S                  
$$


SKY/WX - Weather  TMP - Temperature  DP - Dew Point  RH - Humidity
WIND - Wind Direction/Speed PRES - Barometric Pressure VSB - Visibility
WCI - Wind Chill Index E13G22 Wind - East Wind 13 mph/Gusts of 22 mph

Trending Headlines

Trending Entertainment Headlines

Crooked Creek Radar Loop

Use the map search tool if you want to place a location marker on the radar map...

Crooked Creek Quick Facts

National Two Day Weather Forecast


E-mail the Crooked Creek Weather Forecast

Voice your opinion or tell us about page issues...